,,PA_Meas_PMT16A,,PR_Meas_QMR101_102,,RH_Meas_QMH101,,SR_Meas_QMS101,,TA_Meas_QMH101,,GenWind,,GenWind,
time,status,PA,status,PR,status,RH,status,SR,status,TA,status,DirAvg,status,SpdAvg,
2009-12-31, 00:00:05,VALID,916.939,VALID,0,VALID,95.1783,VALID,0,VALID,18.8225,VALID,343,VALID,0.619141,
2009-12-31, 00:01:05,VALID,916.955,VALID,0,VALID,95.1479,VALID,0,VALID,18.8225,VALID,343,VALID,0.382031,
2009-12-31, 00:02:05,VALID,916.932,VALID,0,VALID,95.1097,VALID,0,VALID,18.803,VALID,343,VALID,0.260156,
2009-12-31, 00:03:05,VALID,916.961,VALID,0,VALID,95.1783,VALID,0,VALID,18.8225,VALID,343,VALID,0.617969,
2009-12-31, 00:04:05,VALID,916.957,VALID,0,VALID,95.1631,VALID,0,VALID,18.824,VALID,343,VALID,0.279297,
2009-12-31, 00:05:05,VALID,916.969,VALID,0,VALID,95.3689,VALID,0,VALID,18.8615,VALID,343,VALID,0.194141,
2009-12-31, 00:06:05,VALID,916.945,VALID,0,VALID,95.7577,VALID,0,VALID,18.881,VALID,343,VALID,0.490234,
2009-12-31, 00:07:05,VALID,916.975,VALID,0,VALID,95.9941,VALID,0,VALID,18.9005,VALID,343,VALID,0.291406,
2009-12-31, 00:08:05,VALID,916.974,VALID,0,VALID,96.0855,VALID,0,VALID,18.881,VALID,343,VALID,0.0738281,
2009-12-31, 00:09:05,VALID,916.959,VALID,0,VALID,96.238,VALID,0,VALID,18.9005,VALID,343,VALID,0.308594,
2009-12-31, 00:10:05,VALID,916.957,VALID,0,VALID,96.3371,VALID,0,VALID,18.881,VALID,343,VALID,0.405078,
2009-12-31, 00:11:05,VALID,916.943,VALID,0,VALID,96.4057,VALID,0,VALID,18.8629,VALID,343,VALID,0.350391,
2009-12-31, 00:12:05,VALID,916.982,VALID,0,VALID,96.5201,VALID,0,VALID,18.8434,VALID,343,VALID,0.441797,
2009-12-31, 00:13:05,VALID,916.96,VALID,0,VALID,96.6268,VALID,0,VALID,18.842,VALID,343,VALID,0.571484,
2009-12-31, 00:14:05,VALID,916.972,VALID,0,VALID,96.764,VALID,0,VALID,18.8615,VALID,343,VALID,0.669922,
2009-12-31, 00:15:05,VALID,916.955,VALID,0,VALID,96.8707,VALID,0.107441,VALID,18.9005,VALID,343,VALID,0.728906,
2009-12-31, 00:16:05,VALID,916.965,VALID,0,VALID,96.9089,VALID,0,VALID,18.8615,VALID,343,VALID,0.327344,
2009-12-31, 00:17:05,VALID,916.912,VALID,0,VALID,96.9775,VALID,0,VALID,18.881,VALID,343,VALID,0.219141,
2009-12-31, 00:18:05,VALID,916.893,VALID,0,VALID,96.9927,VALID,0,VALID,18.8615,VALID,343,VALID,0.121484,
2009-12-31, 00:19:05,VALID,916.883,VALID,0,VALID,97.0232,VALID,0.107441,VALID,18.8824,VALID,343,VALID,0.436328,
2009-12-31, 00:20:05,VALID,916.891,VALID,0,VALID,97.0308,VALID,0,VALID,18.8615,VALID,343,VALID,0.260156,
2009-12-31, 00:21:05,VALID,916.875,VALID,0,VALID,97.0232,VALID,0,VALID,18.842,VALID,343,VALID,0.407031,
2009-12-31, 00:22:05,VALID,916.85,VALID,0,VALID,96.9622,VALID,0,VALID,18.8225,VALID,343,VALID,0.375,
2009-12-31, 00:23:05,VALID,916.838,VALID,0,VALID,97.008,VALID,0,VALID,18.8225,VALID,343,VALID,0.503906,
2009-12-31, 00:24:05,VALID,916.857,VALID,0,VALID,96.764,VALID,0,VALID,18.803,VALID,343,VALID,0.358594,
2009-12-31, 00:25:05,VALID,916.833,VALID,0,VALID,96.6954,VALID,0,VALID,18.746,VALID,343,VALID,0.289063,
2009-12-31, 00:26:05,VALID,916.839,VALID,0,VALID,96.9317,VALID,0,VALID,18.803,VALID,343,VALID,0.414453,
2009-12-31, 00:27:05,VALID,916.824,VALID,0,VALID,97.0537,VALID,0.107441,VALID,18.881,VALID,343,VALID,0.207813,
2009-12-31, 00:28:05,VALID,916.819,VALID,0,VALID,96.9851,VALID,0,VALID,18.9395,VALID,343,VALID,0,
2009-12-31, 00:29:05,VALID,916.786,VALID,0,VALID,96.7107,VALID,0,VALID,18.881,VALID,343,VALID,0.113672,
2009-12-31, 00:30:05,VALID,916.774,VALID,0,VALID,96.3295,VALID,0,VALID,18.764,VALID,343,VALID,0.353125,
2009-12-31, 00:31:05,VALID,916.787,VALID,0,VALID,96.6115,VALID,0.107441,VALID,18.8225,VALID,343,VALID,0.276172,
2009-12-31, 00:32:05,VALID,916.793,VALID,0,VALID,96.7183,VALID,0.107441,VALID,18.881,VALID,343,VALID,0.203906,
2009-12-31, 00:33:05,VALID,916.773,VALID,0,VALID,96.7107,VALID,0,VALID,18.92,VALID,343,VALID,0,
2009-12-31, 00:34:05,VALID,916.823,VALID,0,VALID,96.2914,VALID,0,VALID,18.8629,VALID,343,VALID,0,
2009-12-31, 00:35:05,VALID,916.813,VALID,0,VALID,95.9636,VALID,0,VALID,18.7655,VALID,343,VALID,0.153516,
2009-12-31, 00:36:05,VALID,916.801,VALID,0,VALID,95.6815,VALID,0,VALID,18.7265,VALID,343,VALID,0,
2009-12-31, 00:37:05,VALID,916.827,VALID,0,VALID,95.651,VALID,0,VALID,18.707,VALID,343,VALID,0,
2009-12-31, 00:38:05,VALID,916.811,VALID,0,VALID,95.7425,VALID,0,VALID,18.707,VALID,343,VALID,0,
2009-12-31, 00:39:05,VALID,916.822,VALID,0,VALID,95.7196,VALID,0,VALID,18.668,VALID,343,VALID,0,
2009-12-31, 00:40:05,VALID,916.804,VALID,0,VALID,95.8416,VALID,0,VALID,18.668,VALID,343,VALID,0,
2009-12-31, 00:41:05,VALID,916.795,VALID,0,VALID,96.0855,VALID,0,VALID,18.6875,VALID,343,VALID,0,
2009-12-31, 00:42:05,VALID,916.801,VALID,0,VALID,96.1541,VALID,0,VALID,18.7265,VALID,343,VALID,0,
2009-12-31, 00:43:05,VALID,916.77,VALID,0,VALID,95.8263,VALID,0,VALID,18.707,VALID,343,VALID,0.00585938,
2009-12-31, 00:44:05,VALID,916.739,VALID,0,VALID,95.834,VALID,0,VALID,18.707,VALID,343,VALID,0,
2009-12-31, 00:45:05,VALID,916.706,VALID,0,VALID,95.9941,VALID,0,VALID,18.7056,VALID,343,VALID,0,
2009-12-31, 00:46:05,VALID,916.682,VALID,0,VALID,95.3994,VALID,0,VALID,18.668,VALID,343,VALID,0,
2009-12-31, 00:47:05,VALID,916.634,VALID,0,VALID,95.2317,VALID,0,VALID,18.629,VALID,343,VALID,0.189453,
2009-12-31, 00:48:04,VALID,916.657,VALID,0,VALID,95.1097,VALID,0,VALID,18.5511,VALID,343,VALID,0.163281,
2009-12-31, 00:49:04,VALID,916.627,VALID,0,VALID,95.4223,VALID,0,VALID,18.4926,VALID,343,VALID,0.3875,
2009-12-31, 00:50:04,VALID,916.621,VALID,0,VALID,95.7654,VALID,0,VALID,18.4731,VALID,343,VALID,0.704687,
2009-12-31, 00:51:04,VALID,916.627,VALID,0,VALID,95.5519,VALID,0,VALID,18.4341,VALID,343,VALID,0.573828,
2009-12-31, 00:52:04,VALID,916.645,VALID,0,VALID,95.7958,VALID,0,VALID,18.4146,VALID,343,VALID,0.476172,
2009-12-31, 00:53:04,VALID,916.643,VALID,0,VALID,95.9178,VALID,0,VALID,18.4341,VALID,343,VALID,0.367969,
2009-12-31, 00:54:04,VALID,916.594,VALID,0,VALID,95.9102,VALID,0,VALID,18.4536,VALID,343,VALID,0.466016,
2009-12-31, 00:55:04,VALID,916.649,VALID,0,VALID,95.7882,VALID,0,VALID,18.4926,VALID,343,VALID,0.230469,
2009-12-31, 00:56:04,VALID,916.628,VALID,0,VALID,95.6357,VALID,0,VALID,18.5121,VALID,343,VALID,0.632422,
2009-12-31, 00:57:04,VALID,916.631,VALID,0,VALID,95.5976,VALID,0,VALID,18.5511,VALID,343,VALID,0.645312,
2009-12-31, 00:58:04,VALID,916.619,VALID,0,VALID,95.2927,VALID,0,VALID,18.59,VALID,343,VALID,0.557813,
2009-12-31, 00:59:04,VALID,916.614,VALID,0,VALID,94.8963,VALID,0,VALID,18.59,VALID,343,VALID,0.369531,
2009-12-31, 01:00:04,VALID,916.593,VALID,0,VALID,94.8963,VALID,0,VALID,18.6095,VALID,343,VALID,0.273828,
2009-12-31, 01:01:04,VALID,916.562,VALID,0,VALID,94.9268,VALID,0,VALID,18.6095,VALID,343,VALID,0.44375,
2009-12-31, 01:02:04,VALID,916.538,VALID,0,VALID,94.8963,VALID,0,VALID,18.629,VALID,343,VALID,0.366797,
2009-12-31, 01:03:04,VALID,916.523,VALID,0,VALID,94.9725,VALID,0,VALID,18.629,VALID,343,VALID,0.247266,
2009-12-31, 01:04:04,VALID,916.497,VALID,0,VALID,94.9878,VALID,0,VALID,18.6485,VALID,343,VALID,0.163281,
2009-12-31, 01:05:04,VALID,916.489,VALID,0,VALID,94.9039,VALID,0,VALID,18.629,VALID,343,VALID,0.217187,
2009-12-31, 01:06:04,VALID,916.514,VALID,0,VALID,94.8277,VALID,0,VALID,18.629,VALID,343,VALID,0.303125,
2009-12-31, 01:07:04,VALID,916.497,VALID,0,VALID,94.9649,VALID,0,VALID,18.6485,VALID,343,VALID,0.367578,
2009-12-31, 01:08:04,VALID,916.48,VALID,0,VALID,94.881,VALID,0,VALID,18.6485,VALID,343,VALID,0.350781,
2009-12-31, 01:09:04,VALID,916.458,VALID,0,VALID,94.7667,VALID,0,VALID,18.629,VALID,343,VALID,0.262891,
2009-12-31, 01:10:04,VALID,916.475,VALID,0,VALID,94.6828,VALID,0,VALID,18.59,VALID,343,VALID,0.378125,
2009-12-31, 01:11:04,VALID,916.476,VALID,0,VALID,94.9573,VALID,0,VALID,18.5705,VALID,343,VALID,0.450391,
2009-12-31, 01:12:04,VALID,916.475,VALID,0,VALID,94.942,VALID,0,VALID,18.5511,VALID,343,VALID,0.378125,
2009-12-31, 01:13:04,VALID,916.46,VALID,0,VALID,95.1326,VALID,0,VALID,18.5511,VALID,343,VALID,0.279687,
2009-12-31, 01:14:04,VALID,916.496,VALID,0,VALID,95.0259,VALID,0,VALID,18.5316,VALID,343,VALID,0.363672,
2009-12-31, 01:15:04,VALID,916.478,VALID,0,VALID,94.9954,VALID,0,VALID,18.5121,VALID,343,VALID,0.286719,
2009-12-31, 01:16:04,VALID,916.45,VALID,0,VALID,94.8963,VALID,0,VALID,18.4926,VALID,343,VALID,0.210547,
2009-12-31, 01:17:04,VALID,916.458,VALID,0,VALID,94.9344,VALID,0,VALID,18.4926,VALID,343,VALID,0.287891,
2009-12-31, 01:18:04,VALID,916.45,VALID,0,VALID,95.0335,VALID,0,VALID,18.4731,VALID,343,VALID,0.345313,
2009-12-31, 01:19:04,VALID,916.424,VALID,0,VALID,94.9954,VALID,0,VALID,18.494,VALID,343,VALID,0.436328,
2009-12-31, 01:20:04,VALID,916.432,VALID,0,VALID,94.8734,VALID,0,VALID,18.494,VALID,343,VALID,0.545703,
2009-12-31, 01:21:04,VALID,916.408,VALID,0,VALID,94.9725,VALID,0,VALID,18.4536,VALID,343,VALID,0.548437,
2009-12-31, 01:22:04,VALID,916.389,VALID,0,VALID,94.8963,VALID,0,VALID,18.4536,VALID,343,VALID,0.453125,
2009-12-31, 01:23:04,VALID,916.355,VALID,0,VALID,94.9878,VALID,0,VALID,18.4731,VALID,343,VALID,0.543359,
2009-12-31, 01:24:04,VALID,916.347,VALID,0,VALID,94.9573,VALID,0,VALID,18.4731,VALID,343,VALID,0.160938,
2009-12-31, 01:25:04,VALID,916.343,VALID,0,VALID,95.0869,VALID,0,VALID,18.4731,VALID,343,VALID,0.367578,
2009-12-31, 01:26:04,VALID,916.309,VALID,0,VALID,95.1326,VALID,0,VALID,18.4926,VALID,343,VALID,0.274219,
2009-12-31, 01:27:04,VALID,916.341,VALID,0,VALID,95.2393,VALID,0,VALID,18.4926,VALID,343,VALID,0,
2009-12-31, 01:28:04,VALID,916.345,VALID,0,VALID,95.3156,VALID,0,VALID,18.4926,VALID,343,VALID,0,
2009-12-31, 01:29:04,VALID,916.335,VALID,0,VALID,95.4071,VALID,0,VALID,18.533,VALID,343,VALID,0,
2009-12-31, 01:30:04,VALID,916.321,VALID,0,VALID,94.942,VALID,0,VALID,18.4926,VALID,343,VALID,0.173828,
2009-12-31, 01:31:04,VALID,916.293,VALID,0,VALID,95.0869,VALID,0,VALID,18.4731,VALID,343,VALID,0.182031,
2009-12-31, 01:32:04,VALID,916.274,VALID,0,VALID,94.9268,VALID,0,VALID,18.4731,VALID,343,VALID,0.283203,
2009-12-31, 01:33:04,VALID,916.257,VALID,0,VALID,94.8048,VALID,0,VALID,18.4731,VALID,343,VALID,0.134766,
2009-12-31, 01:34:04,VALID,916.245,VALID,0,VALID,94.8048,VALID,0,VALID,18.4926,VALID,343,VALID,0,
2009-12-31, 01:35:04,VALID,916.218,VALID,0,VALID,95.0183,VALID,0,VALID,18.4926,VALID,343,VALID,0.428516,
2009-12-31, 01:36:04,VALID,916.208,VALID,0,VALID,94.3398,VALID,0,VALID,18.4745,VALID,343,VALID,0.48125,
2009-12-31, 01:37:04,VALID,916.198,VALID,0,VALID,94.416,VALID,0,VALID,18.4355,VALID,343,VALID,0.492969,
2009-12-31, 01:38:04,VALID,916.168,VALID,0,VALID,95.1631,VALID,0,VALID,18.3965,VALID,343,VALID,0.858984,
2009-12-31, 01:39:04,VALID,916.139,VALID,0,VALID,95.1326,VALID,0,VALID,18.3561,VALID,343,VALID,0.739453,
2009-12-31, 01:40:04,VALID,916.11,VALID,0,VALID,95.1479,VALID,0,VALID,18.338,VALID,343,VALID,0.85,
2009-12-31, 01:41:04,VALID,916.112,VALID,0,VALID,95.5214,VALID,0,VALID,18.3366,VALID,343,VALID,0.680859,
2009-12-31, 01:42:04,VALID,916.095,VALID,0,VALID,95.6586,VALID,0,VALID,18.3366,VALID,343,VALID,0.748438,
2009-12-31, 01:43:04,VALID,916.084,VALID,0,VALID,95.5519,VALID,0,VALID,18.3366,VALID,343,VALID,0.563281,
2009-12-31, 01:44:04,VALID,916.057,VALID,0,VALID,95.3842,VALID,0,VALID,18.3172,VALID,343,VALID,0.575391,
2009-12-31, 01:45:04,VALID,916.049,VALID,0,VALID,95.4985,VALID,0,VALID,18.2782,VALID,343,VALID,0.460547,
2009-12-31, 01:46:04,VALID,915.971,VALID,0,VALID,95.8035,VALID,0.107441,VALID,18.3158,VALID,343,VALID,0.753906,
2009-12-31, 01:47:04,VALID,915.996,VALID,0,VALID,95.8721,VALID,0.107441,VALID,18.2963,VALID,343,VALID,0.422656,
2009-12-31, 01:48:04,VALID,915.949,VALID,0,VALID,95.8721,VALID,0.107441,VALID,18.3366,VALID,343,VALID,0.692969,
2009-12-31, 01:49:04,VALID,915.925,VALID,0,VALID,95.7425,VALID,0.107441,VALID,18.3158,VALID,343,VALID,0.645312,
2009-12-31, 01:50:04,VALID,915.909,VALID,0,VALID,95.651,VALID,0,VALID,18.3158,VALID,343,VALID,0.372266,
2009-12-31, 01:51:04,VALID,915.852,VALID,0,VALID,95.6281,VALID,0.107441,VALID,18.3366,VALID,343,VALID,0.432031,
2009-12-31, 01:52:04,VALID,915.857,VALID,0,VALID,95.5214,VALID,0.107441,VALID,18.3158,VALID,343,VALID,0.334766,
2009-12-31, 01:53:04,VALID,915.852,VALID,0,VALID,95.7577,VALID,0,VALID,18.3158,VALID,343,VALID,0.745313,
2009-12-31, 01:54:04,VALID,915.816,VALID,0,VALID,95.6205,VALID,0.107441,VALID,18.2963,VALID,343,VALID,0.740234,
2009-12-31, 01:55:04,VALID,915.781,VALID,0,VALID,95.5443,VALID,0.107441,VALID,18.2963,VALID,343,VALID,0.463281,
2009-12-31, 01:56:04,VALID,915.795,VALID,0,VALID,95.6357,VALID,0,VALID,18.3158,VALID,343,VALID,0.478125,
2009-12-31, 01:57:04,VALID,915.762,VALID,0,VALID,95.4985,VALID,0.107441,VALID,18.3158,VALID,343,VALID,0.269922,
2009-12-31, 01:58:04,VALID,915.743,VALID,0,VALID,95.6205,VALID,0,VALID,18.3352,VALID,343,VALID,0.112891,
2009-12-31, 01:59:04,VALID,915.753,VALID,0,VALID,95.5367,VALID,0.107441,VALID,18.3561,VALID,343,VALID,0.130078,
2009-12-31, 02:00:04,VALID,915.757,VALID,0,VALID,95.3537,VALID,0.107441,VALID,18.3158,VALID,343,VALID,0,
2009-12-31, 02:01:04,VALID,915.748,VALID,0,VALID,95.3384,VALID,0.107441,VALID,18.3158,VALID,343,VALID,0.61875,
2009-12-31, 02:02:04,VALID,915.732,VALID,0,VALID,95.2012,VALID,0.107441,VALID,18.3158,VALID,343,VALID,0.286719,
2009-12-31, 02:03:04,VALID,915.735,VALID,0,VALID,95.4147,VALID,0.107441,VALID,18.3352,VALID,343,VALID,0.465234,
2009-12-31, 02:04:04,VALID,915.724,VALID,0,VALID,95.1783,VALID,0,VALID,18.3158,VALID,343,VALID,0.292188,
2009-12-31, 02:05:04,VALID,915.716,VALID,0,VALID,95.0945,VALID,0.107441,VALID,18.3547,VALID,343,VALID,0.411328,
2009-12-31, 02:06:04,VALID,915.692,VALID,0,VALID,95.1021,VALID,0.107441,VALID,18.3742,VALID,343,VALID,0,
2009-12-31, 02:07:04,VALID,915.711,VALID,0,VALID,95.0716,VALID,0.107441,VALID,18.3937,VALID,343,VALID,0.123047,
2009-12-31, 02:08:04,VALID,915.67,VALID,0,VALID,94.9268,VALID,0.107441,VALID,18.4132,VALID,343,VALID,0,
2009-12-31, 02:09:04,VALID,915.632,VALID,0,VALID,94.7591,VALID,0.107441,VALID,18.4327,VALID,343,VALID,0,
2009-12-31, 02:10:04,VALID,915.645,VALID,0,VALID,94.3931,VALID,0.107441,VALID,18.4132,VALID,343,VALID,0,
2009-12-31, 02:11:04,VALID,915.629,VALID,0,VALID,94.1721,VALID,0.107441,VALID,18.4132,VALID,343,VALID,0,
2009-12-31, 02:12:04,VALID,915.619,VALID,0,VALID,94.2254,VALID,0,VALID,18.3937,VALID,343,VALID,0.00195313,
2009-12-31, 02:13:04,VALID,915.587,VALID,0,VALID,94.2254,VALID,0.107441,VALID,18.3742,VALID,343,VALID,0,
2009-12-31, 02:14:04,VALID,915.592,VALID,0,VALID,94.2483,VALID,0.107441,VALID,18.3547,VALID,343,VALID,0.00117188,
2009-12-31, 02:15:04,VALID,915.573,VALID,0,VALID,94.4617,VALID,0.107441,VALID,18.3352,VALID,343,VALID,0.213672,
2009-12-31, 02:16:04,VALID,915.584,VALID,0,VALID,94.2026,VALID,0,VALID,18.3366,VALID,343,VALID,0,
2009-12-31, 02:17:04,VALID,915.553,VALID,0,VALID,94.2102,VALID,0,VALID,18.3561,VALID,343,VALID,0,
2009-12-31, 02:18:04,VALID,915.563,VALID,0,VALID,94.4617,VALID,0,VALID,18.3756,VALID,343,VALID,0.233594,
2009-12-31, 02:19:04,VALID,915.553,VALID,0,VALID,94.3474,VALID,0,VALID,18.3756,VALID,343,VALID,0,
2009-12-31, 02:20:04,VALID,915.517,VALID,0,VALID,94.1416,VALID,0,VALID,18.3756,VALID,343,VALID,0,
2009-12-31, 02:21:04,VALID,915.567,VALID,0,VALID,94.2483,VALID,0,VALID,18.3756,VALID,343,VALID,0,
2009-12-31, 02:22:04,VALID,915.507,VALID,0,VALID,94.2407,VALID,0,VALID,18.3951,VALID,343,VALID,0,
2009-12-31, 02:23:04,VALID,915.556,VALID,0,VALID,93.7528,VALID,0,VALID,18.3756,VALID,343,VALID,0,
2009-12-31, 02:24:04,VALID,915.518,VALID,0,VALID,93.6079,VALID,0,VALID,18.3575,VALID,343,VALID,0,
2009-12-31, 02:25:04,VALID,915.521,VALID,0,VALID,92.6855,VALID,0,VALID,18.299,VALID,343,VALID,0,
2009-12-31, 02:26:04,VALID,915.489,VALID,0,VALID,93.707,VALID,0,VALID,18.2601,VALID,343,VALID,0,
2009-12-31, 02:27:04,VALID,915.513,VALID,0,VALID,94.0501,VALID,0,VALID,18.1807,VALID,343,VALID,0,
2009-12-31, 02:28:04,VALID,915.484,VALID,0,VALID,94.355,VALID,0,VALID,18.1807,VALID,343,VALID,0,
2009-12-31, 02:29:04,VALID,915.465,VALID,0,VALID,94.4084,VALID,0,VALID,18.1417,VALID,343,VALID,0,
2009-12-31, 02:30:04,VALID,915.442,VALID,0,VALID,94.7057,VALID,0,VALID,18.1612,VALID,343,VALID,0,
2009-12-31, 02:31:04,VALID,915.433,VALID,0,VALID,95.1326,VALID,0,VALID,18.2587,VALID,343,VALID,0,
2009-12-31, 02:32:04,VALID,915.444,VALID,0,VALID,94.8887,VALID,0,VALID,18.2782,VALID,343,VALID,0,
2009-12-31, 02:33:04,VALID,915.467,VALID,0,VALID,94.7438,VALID,0,VALID,18.2782,VALID,343,VALID,0,
2009-12-31, 02:34:04,VALID,915.447,VALID,0,VALID,94.7057,VALID,0,VALID,18.2782,VALID,343,VALID,0,
2009-12-31, 02:35:04,VALID,915.45,VALID,0,VALID,94.4389,VALID,0,VALID,18.2796,VALID,343,VALID,0,
2009-12-31, 02:36:04,VALID,915.431,VALID,0,VALID,94.3855,VALID,0,VALID,18.2197,VALID,343,VALID,0,
2009-12-31, 02:37:04,VALID,915.439,VALID,0,VALID,94.942,VALID,0,VALID,18.2392,VALID,343,VALID,0,
2009-12-31, 02:38:04,VALID,915.378,VALID,0,VALID,95.2165,VALID,0,VALID,18.2601,VALID,343,VALID,0,
2009-12-31, 02:39:04,VALID,915.364,VALID,0,VALID,95.3079,VALID,0,VALID,18.2977,VALID,343,VALID,0,
2009-12-31, 02:40:04,VALID,915.335,VALID,0,VALID,95.0106,VALID,0,VALID,18.3366,VALID,343,VALID,0,
2009-12-31, 02:41:04,VALID,915.322,VALID,0,VALID,94.6828,VALID,0,VALID,18.416,VALID,343,VALID,0,
2009-12-31, 02:42:04,VALID,915.351,VALID,0,VALID,93.9738,VALID,0,VALID,18.3756,VALID,343,VALID,0,
2009-12-31, 02:43:04,VALID,915.349,VALID,0,VALID,93.7985,VALID,0,VALID,18.3366,VALID,343,VALID,0,
2009-12-31, 02:44:04,VALID,915.349,VALID,0,VALID,93.829,VALID,0,VALID,18.3172,VALID,343,VALID,0.395312,
2009-12-31, 02:45:04,VALID,915.315,VALID,0,VALID,94.1644,VALID,0,VALID,18.2782,VALID,343,VALID,0.485547,
2009-12-31, 02:46:04,VALID,915.308,VALID,0,VALID,94.6142,VALID,0,VALID,18.3185,VALID,343,VALID,0.398047,
2009-12-31, 02:47:04,VALID,915.281,VALID,0,VALID,94.7057,VALID,0,VALID,18.2977,VALID,343,VALID,0.473828,
2009-12-31, 02:48:04,VALID,915.281,VALID,0,VALID,94.5532,VALID,0,VALID,18.3172,VALID,343,VALID,0.551172,
2009-12-31, 02:49:04,VALID,915.28,VALID,0,VALID,94.6295,VALID,0,VALID,18.3366,VALID,343,VALID,0.592969,
2009-12-31, 02:50:04,VALID,915.283,VALID,0,VALID,94.3398,VALID,0,VALID,18.3561,VALID,343,VALID,0.410937,
2009-12-31, 02:51:04,VALID,915.282,VALID,0,VALID,94.073,VALID,0,VALID,18.3756,VALID,343,VALID,0.238672,
2009-12-31, 02:52:04,VALID,915.272,VALID,0,VALID,93.5698,VALID,0,VALID,18.3561,VALID,343,VALID,0.367188,
2009-12-31, 02:53:04,VALID,915.312,VALID,0,VALID,93.2268,VALID,0,VALID,18.3185,VALID,343,VALID,0.188281,
2009-12-31, 02:54:04,VALID,915.305,VALID,0,VALID,93.2649,VALID,0,VALID,18.2587,VALID,343,VALID,0.23125,
2009-12-31, 02:55:04,VALID,915.297,VALID,0,VALID,94.0577,VALID,0,VALID,18.2392,VALID,343,VALID,0.856641,
2009-12-31, 02:56:04,VALID,915.271,VALID,0,VALID,94.7286,VALID,0,VALID,18.2406,VALID,343,VALID,1.02344,
2009-12-31, 02:57:04,VALID,915.305,VALID,0,VALID,94.7514,VALID,0,VALID,18.2211,VALID,343,VALID,0.824219,
2009-12-31, 02:58:04,VALID,915.303,VALID,0,VALID,94.7057,VALID,0,VALID,18.2016,VALID,343,VALID,0.617969,
2009-12-31, 02:59:04,VALID,915.303,VALID,0,VALID,94.5532,VALID,0,VALID,18.1417,VALID,343,VALID,0.688672,
2009-12-31, 03:00:04,VALID,915.319,VALID,0,VALID,94.66,VALID,0,VALID,18.1041,VALID,343,VALID,0.413281,
2009-12-31, 03:01:04,VALID,915.289,VALID,0,VALID,94.7362,VALID,0.107441,VALID,18.0429,VALID,343,VALID,0.342578,
2009-12-31, 03:02:04,VALID,915.29,VALID,0,VALID,94.9573,VALID,0,VALID,18.0443,VALID,343,VALID,0.369141,
2009-12-31, 03:03:04,VALID,915.286,VALID,0,VALID,95.1326,VALID,0,VALID,18.0039,VALID,343,VALID,0.247656,
2009-12-31, 03:04:04,VALID,915.269,VALID,0,VALID,95.4375,VALID,0.107441,VALID,18.0443,VALID,343,VALID,0.2375,
2009-12-31, 03:05:04,VALID,915.269,VALID,0,VALID,95.1479,VALID,0,VALID,17.9845,VALID,343,VALID,0.0648438,
2009-12-31, 03:06:04,VALID,915.289,VALID,0,VALID,95.3384,VALID,0,VALID,17.9845,VALID,343,VALID,0,
2009-12-31, 03:07:04,VALID,915.265,VALID,0,VALID,95.6891,VALID,0.107441,VALID,17.965,VALID,343,VALID,0,
2009-12-31, 03:08:04,VALID,915.262,VALID,0,VALID,95.8111,VALID,0,VALID,17.965,VALID,343,VALID,0,
2009-12-31, 03:09:04,VALID,915.254,VALID,0,VALID,95.8721,VALID,0.107441,VALID,17.9468,VALID,343,VALID,0,
2009-12-31, 03:10:04,VALID,915.265,VALID,0,VALID,96.0017,VALID,0,VALID,17.9455,VALID,343,VALID,0,
2009-12-31, 03:11:04,VALID,915.226,VALID,0,VALID,96.0703,VALID,0.107441,VALID,17.9468,VALID,343,VALID,0,
2009-12-31, 03:12:04,VALID,915.236,VALID,0,VALID,96.2151,VALID,0,VALID,18.0053,VALID,343,VALID,0,
2009-12-31, 03:13:04,VALID,915.228,VALID,0,VALID,96.2914,VALID,0,VALID,18.0234,VALID,343,VALID,0,
2009-12-31, 03:14:04,VALID,915.195,VALID,0,VALID,96.2914,VALID,0,VALID,18.0819,VALID,343,VALID,0,
2009-12-31, 03:15:04,VALID,915.177,VALID,0,VALID,96.116,VALID,0,VALID,18.1404,VALID,343,VALID,0,
2009-12-31, 03:16:04,VALID,915.181,VALID,0,VALID,95.8797,VALID,0,VALID,18.2392,VALID,343,VALID,0,
2009-12-31, 03:17:04,VALID,915.176,VALID,0,VALID,95.3461,VALID,0,VALID,18.299,VALID,343,VALID,0,
2009-12-31, 03:18:04,VALID,915.173,VALID,0,VALID,95.0411,VALID,0,VALID,18.2977,VALID,343,VALID,0,
2009-12-31, 03:19:04,VALID,915.165,VALID,0,VALID,94.8505,VALID,0,VALID,18.3172,VALID,343,VALID,0,
2009-12-31, 03:20:04,VALID,915.155,VALID,0,VALID,94.6981,VALID,0,VALID,18.3366,VALID,343,VALID,0,
2009-12-31, 03:21:04,VALID,915.145,VALID,0,VALID,94.7743,VALID,0,VALID,18.3756,VALID,343,VALID,0,
2009-12-31, 03:22:04,VALID,915.15,VALID,0,VALID,94.6523,VALID,0,VALID,18.4341,VALID,343,VALID,0,
2009-12-31, 03:23:04,VALID,915.143,VALID,0,VALID,94.3245,VALID,0,VALID,18.4731,VALID,343,VALID,0,
2009-12-31, 03:24:04,VALID,915.132,VALID,0,VALID,94.1797,VALID,0,VALID,18.5135,VALID,343,VALID,0,
2009-12-31, 03:25:04,VALID,915.117,VALID,0,VALID,93.9205,VALID,0,VALID,18.5511,VALID,343,VALID,0,
2009-12-31, 03:26:04,VALID,915.112,VALID,0,VALID,92.9752,VALID,0,VALID,18.533,VALID,343,VALID,0.31875,
2009-12-31, 03:27:04,VALID,915.114,VALID,0,VALID,93.4783,VALID,0,VALID,18.4731,VALID,343,VALID,0.396875,
2009-12-31, 03:28:04,VALID,915.089,VALID,0,VALID,93.425,VALID,0,VALID,18.4536,VALID,343,VALID,0.215234,
2009-12-31, 03:29:04,VALID,915.102,VALID,0,VALID,93.4783,VALID,0,VALID,18.4146,VALID,343,VALID,0.192188,
2009-12-31, 03:30:04,VALID,915.093,VALID,0,VALID,93.3792,VALID,0,VALID,18.3756,VALID,343,VALID,0.345313,
2009-12-31, 03:31:04,VALID,915.123,VALID,0,VALID,93.5698,VALID,0.107441,VALID,18.3352,VALID,343,VALID,0.270703,
2009-12-31, 03:32:04,VALID,915.087,VALID,0,VALID,93.8824,VALID,0.107441,VALID,18.2963,VALID,343,VALID,0.238672,
2009-12-31, 03:33:04,VALID,915.112,VALID,0,VALID,94.233,VALID,0,VALID,18.3158,VALID,343,VALID,0.332812,
2009-12-31, 03:34:04,VALID,915.089,VALID,0,VALID,94.4008,VALID,0.107441,VALID,18.2977,VALID,343,VALID,0.255859,
2009-12-31, 03:35:04,VALID,915.095,VALID,0,VALID,94.6447,VALID,0.107441,VALID,18.2573,VALID,343,VALID,0.213281,
2009-12-31, 03:36:04,VALID,915.086,VALID,0,VALID,94.2864,VALID,0.107441,VALID,18.2183,VALID,343,VALID,0.257813,
2009-12-31, 03:37:04,VALID,915.05,VALID,0,VALID,94.7667,VALID,0.107441,VALID,18.1793,VALID,343,VALID,0.532422,
2009-12-31, 03:38:04,VALID,915.039,VALID,0,VALID,95.2546,VALID,0.107441,VALID,18.1793,VALID,343,VALID,0.509766,
2009-12-31, 03:39:04,VALID,915.041,VALID,0,VALID,95.2775,VALID,0.107441,VALID,18.1404,VALID,343,VALID,0.607813,
2009-12-31, 03:40:04,VALID,915.027,VALID,0,VALID,95.2622,VALID,0.107441,VALID,18.1404,VALID,343,VALID,0.610937,
2009-12-31, 03:41:04,VALID,915.031,VALID,0,VALID,95.2393,VALID,0,VALID,18.1195,VALID,343,VALID,0.572656,
2009-12-31, 03:42:04,VALID,915.044,VALID,0,VALID,95.4071,VALID,0.107441,VALID,18.1807,VALID,343,VALID,0.593359,
2009-12-31, 03:43:04,VALID,915.02,VALID,0,VALID,95.2165,VALID,0,VALID,18.2378,VALID,343,VALID,0.448828,
2009-12-31, 03:44:04,VALID,915.019,VALID,0,VALID,95.0564,VALID,0,VALID,18.2573,VALID,343,VALID,0.339453,
2009-12-31, 03:45:04,VALID,915.029,VALID,0,VALID,94.9115,VALID,0,VALID,18.2963,VALID,343,VALID,0.311328,
2009-12-31, 03:46:04,VALID,915.005,VALID,0,VALID,94.82,VALID,0,VALID,18.3366,VALID,343,VALID,0.181641,